TIME,DELAY(SENSOR),PRES,OXYGEN,RAWTEMP,T(OPTODE),TCPHASE,FLUOR,BETA(BETA700),BETA(BETA412),BETA(BETA440),CDOM,C(CSC),ED(ED412.40),ED(ED444.00),ED(ED489.70),ED(ED554.30),LU(LU411.80),LU(LU443.40),LU(LU489.60),LU(LU554.10),COMP,TILTX,TILTY,CHECK
1339991124,5809,890.2999877929688000,43.6848411560058600,663.0424194335938000,4.5277600288391110,54.4836082458496100,53,100,88,79,82,15382,2147759360,2147420973,2148009298,2147875456,2147641234,2147065152,2148261440,2147197046,1698,4,14,56518
1339994720,5810,962.0499877929688000,46.8658294677734400,671.1702270507812000,4.2595348358154300,54.1255607604980500,52,101,86,80,82,15383,2147760822,2147420068,2148003949,2147872054,2147641033,2147064118,2148263478,2147198893,3108,4,13,39289
1339998320,5809,977.0399780273438000,47.9960899353027340,672.6439819335938000,4.2108149528503420,53.9812202453613300,54,99,90,79,82,15382,2147760457,2147420891,2148006253,2147872886,2147642368,2147058761,2148255862,2147197385,3467,4,13,16014
1340001920,5812,978.5700073242188000,47.4766807556152340,673.1431884765625000,4.1943092346191410,54.0580902099609400,52,99,91,80,82,15384,2147761307,2147417856,2148008859,2147873289,2147642852,2147058697,2148263131,2147200118,873,4,13,54414
1340005520,5809,982.8200073242188000,47.3930015563964840,673.1849975585938000,4.1929259300231930,54.0746383666992200,53,100,85,79,81,15384,2147759094,2147421659,2148006921,2147874779,2147641819,2147061961,2148259410,2147196205,649,4,14,43454
1340009120,5810,990.1599731445312000,47.0880203247070300,672.3422241210938000,4.2207970619201660,54.1033706665039060,52,99,87,80,82,15387,2147761792,2147419794,2148007140,2147871716,2147641371,2147059090,2148261686,2147200054,223,4,13,21644
1340012720,5808,994.2299804687500000,47.0895500183105500,672.6824951171875000,4.2095432281494140,54.1099586486816400,53,100,88,79,82,15385,2147760950,2147420032,2148008448,2147870372,2147641673,2147061504,2148263606,2147200338,3583,4,14,27900
1340016320,5806,991.2899780273438000,46.9362602233886700,672.8734741210938000,4.2032279968261720,54.1380996704101560,53,100,89,79,82,15382,2147759789,2147422482,2148008987,2147871625,2147643739,2147059200,2148255222,2147201097,127,4,13,11032
1340019920,5808,990.7899780273438000,47.1995506286621100,674.0272216796875000,4.1650729179382320,54.1085395812988300,53,97,88,80,82,15384,2147761398,2147421760,2148010322,2147874203,2147643117,2147060909,2148262208,2147200795,3580,4,13,43909
1340023520,5809,997.8200073242188000,47.1264190673828100,673.6140136718750000,4.1787381172180180,54.1151390075683600,52,99,89,79,82,15378,2147762989,2147419721,2148005970,2147877101,2147643602,2147059574,2148262253,2147201920,3386,4,13,63978
1340027120,5811,993.5300292968750000,46.9429206848144500,673.7916259765625000,4.1728649139404300,54.1425895690918000,53,103,89,80,83,15375,2147762048,2147419565,2148007798,2147874285,2147646601,2147061906,2148266724,2147200064,254,4,13,28804
1340030720,5810,996.0399780273438000,46.8824691772460940,673.8068847656250000,4.1723580360412600,54.1556587219238300,52,97,86,81,82,15379,2147759588,2147419364,2148008438,2147872347,2147644086,2147061933,2148260617,2147202093,165,4,13,43732
1340034320,5811,995.5200195312500000,47.5973701477050800,674.2991943359375000,4.1560750007629395,54.0608711242675800,51,98,91,80,82,15377,2147760905,2147419538,2148008347,2147874249,2147643538,2147067620,2148262893,2147198070,3429,4,13,62394
1340037920,5813,992.0700073242188000,47.8307991027832000,675.4329223632812000,4.1185631752014160,54.0393104553222660,53,99,88,79,82,15378,2147760649,2147418633,2148007588,2147872923,2147644534,2147060708,2148264036,2147200786,91,5,13,2553
1340041520,5809,990.9600219726562000,47.5651397705078100,675.3712158203125000,4.1206021308898930,54.0769386291503900,53,102,88,78,83,15378,2147757933,2147417508,2148008640,2147874624,2147641874,2147063844,2148264896,2147200310,472,4,13,49697
1340045120,5806,990.9000244140625000,47.4927101135253900,675.6784057617188000,4.1104350090026855,54.0893898010253900,52,98,86,78,83,15380,2147757440,2147421531,2148007405,2147875337,2147640027,2147062080,2148264219,2147201517,3549,4,13,611
1340048720,5808,993.9000244140625000,47.8517494201660160,675.3461914062500000,4.1214308738708500,54.0362892150878900,53,100,84,80,82,15373,2147760000,2147421494,2148008658,2147878006,2147644416,2147060964,2148264265,2147201481,3557,4,13,47137
1340052320,5810,994.9000244140625000,47.9295883178710940,675.5222778320312000,4.1156010627746580,54.0263290405273440,52,97,89,78,82,15373,2147757321,2147422208,2148009179,2147876681,2147645723,2147056475,2148258971,2147200329,3366,4,13,5193
1340055920,5810,999.0100097656250000,47.3842582702636700,674.5498046875000000,4.1477828025817870,54.0909309387207000,53,100,88,79,80,15376,2147758390,2147418578,2148011675,2147877348,2147640393,2147064018,2148258642,2147199808,225,4,13,64577
1340059520,5809,1001.6699829101562000,47.0607299804687500,674.2139282226562000,4.1588969230651855,54.1356887817382800,53,98,87,79,82,15331,2147759808,2147418715,2148007826,2147873536,2147641389,2147057097,2148263424,2147201993,232,4,13,33486
1340063120,5810,1004.8699951171875000,47.1661911010742200,674.0065917968750000,4.1657538414001465,54.1144599914550800,52,102,90,80,82,15374,2147762907,2147421376,2148008603,2147873956,2147641316,2147060315,2148263478,2147202669,252,4,14,31045
1340066720,5809,1005.0900268554688000,46.7648086547851560,674.0479736328125000,4.1643829345703125,54.1701011657714840,53,104,87,79,83,15374,2147759131,2147421677,2148005851,2147876022,2147640576,2147060644,2148261202,2147201088,3560,4,13,48267
1340070320,5811,1009.4600219726562000,46.5657005310058600,672.6497192382812000,4.2106270790100100,54.1854591369628900,52,99,90,81,81,15376,2147759853,2147418358,2148009728,2147873490,2147643584,2147061156,2148260425,2147201024,2751,4,13,32015
1340073920,5808,1007.5399780273438000,46.9946899414062500,673.3895263671875000,4.1861667633056640,54.1370697021484400,53,101,87,79,82,15373,2147759049,2147420425,2148009947,2147875053,2147642230,2147063579,2148260516,2147195273,3534,4,13,32564
1340077520,5809,1000.2299804687500000,46.9428787231445300,674.6185302734375000,4.1455121040344240,54.1572990417480500,52,98,93,81,82,15372,2147759954,2147421110,2148009078,2147872109,2147643053,2147060324,2148265298,2147195766,13,4,13,12305
1340081120,5808,1005.0800170898438000,47.2123413085937500,674.7098999023438000,4.1424870491027830,54.1222190856933600,53,99,87,79,81,15372,2147757723,2147417188,2148008457,2147869814,2147643949,2147057828,2148263899,2147202852,498,4,13,9866
1340084720,5811,1000.2199707031250000,47.5008506774902340,675.3071899414062000,4.1227211952209470,54.0816802978515600,53,98,90,79,81,15369,2147757046,2147419245,2148008109,2147874834,2147641344,2147058816,2148263506,2147202130,73,5,13,49217
1340088320,5805,998.7899780273438000,47.3416099548339840,675.5065917968750000,4.1161208152771000,54.1084785461425800,52,98,88,78,82,15369,2147758592,2147420562,2148010486,2147875401,2147644178,2147062473,2148264640,2147198491,261,4,13,38449
1340091920,5805,1003.8699951171875000,47.6952285766601560,675.5968017578125000,4.1131358146667480,54.0613594055175800,52,98,93,79,83,15369,2147756160,2147420681,2148009261,2147876580,2147642532,2147058029,2148263506,2147198308,133,4,13,51975
1340095520,5810,1005.8400268554688000,46.9565505981445300,674.5999145507812000,4.1461257934570310,54.1520500183105500,53,98,87,79,83,15369,2147758235,2147424987,2148009508,2147872685,2147640621,2147063277,2148258084,2147198765,3586,4,14,56878
1340099120,5810,1008.7899780273438000,47.0876197814941400,674.3867187500000000,4.1531767845153810,54.1348190307617200,53,103,89,79,82,15355,2147756800,2147421952,2148009060,2147874852,2147641225,2147060114,2148257755,2147198116,365,4,13,49457
1340102720,5804,1005.7000122070312000,46.3820610046386700,674.7847290039062000,4.1400132179260250,54.2347106933593750,52,98,90,78,83,15361,2147756553,2147420251,2148013120,2147875702,2147644178,2147061302,2148263762,2147203044,260,4,13,20180
1340106320,5807,1011.8599853515625000,47.1679801940918000,673.9241943359375000,4.1684799194335940,54.1175193786621100,52,99,86,79,82,15362,2147756662,2147420169,2148010861,2147874550,2147645147,2147061558,2148260278,2147199433,362,5,13,12006
1340109920,5808,1008.2299804687500000,46.3516197204589840,674.0383911132812000,4.1647009849548340,54.2308502197265600,52,97,88,80,82,15362,2147760109,2147416822,2148010285,2147874075,2147644342,2147061440,2148261403,2147197485,33,4,13,60386
1340113520,5809,1011.3499755859375000,46.0837783813476560,673.7186279296875000,4.1752800941467285,54.2634010314941400,53,97,92,80,82,15362,2147755922,2147421723,2148009316,2147874770,2147642450,2147058651,2148267254,2147197897,215,4,13,9928
1340117120,5808,1010.4600219726562000,46.0731086730957000,672.8676147460938000,4.2034239768981930,54.2602310180664060,52,99,88,79,82,15355,2147757778,2147420452,2148009234,2147876708,2147642093,2147062363,2148264676,2147199030,3558,4,14,61671
1340120720,5808,999.7800292968750000,46.4564781188964840,673.7744750976562000,4.1734290122985840,54.2112693786621100,53,99,88,78,82,15351,2147758646,2147418505,2148006619,2147876059,2147644781,2147060288,2148263552,2147200054,3523,4,13,516
1340124320,5809,1002.8699951171875000,46.6314888000488300,674.9152221679688000,4.1356930732727050,54.2012596130371100,52,99,89,79,82,15361,2147759652,2147422491,2148008493,2147876032,2147643968,2147063945,2148264256,2147198720,550,4,13,60003
1340127920,5808,999.3400268554688000,47.1432113647460940,676.2598266601562000,4.0911898612976070,54.1488990783691400,52,104,87,79,83,15360,2147760813,2147419382,2148010678,2147877275,2147643035,2147063771,2148259940,2147198774,20,5,13,53642
1340131520,5809,993.1799926757812000,47.6593704223632800,677.2647705078125000,4.0579152107238770,54.0888099670410160,52,101,87,79,82,15360,2147758857,2147422427,2148008283,2147872950,2147640347,2147061302,2148260086,2147196955,3369,4,13,23419
1340135120,5811,993.2100219726562000,48.3452682495117200,678.2568969726562000,4.0250511169433590,54.0069389343261700,54,100,83,78,82,15361,2147760969,2147420973,2148012388,2147876772,2147643712,2147056146,2148265856,2147199140,26,4,13,59562
1340135455,5809,994.0800170898438000,48.3959808349609400,678.4489135742188000,4.0186920166015625,53.9991912841796900,52,102,86,80,83,15374,2147760566,2147420324,2148009801,2147876982,2147644050,2147065965,2148260882,2147199488,201,4,13,58725
